1501142400.82,29186,18.69,73300.0,13.77,2.69,1.75,0,*45
1501142402.06,29187,18.69,73300.8,13.77,2.91,2.09,0,*4B
1501142403.29,29188,18.69,73302.0,13.79,3.45,2.59,0,*47
1501142404.53,29189,18.69,73300.5,13.77,3.41,2.65,0,*43
1501142405.77,29190,18.69,73302.5,13.79,3.79,3.11,0,*4C
1501142406.99,29191,18.69,73300.5,13.81,3.53,2.91,0,*4B
1501142408.25,29192,18.69,73302.3,13.85,3.79,3.37,0,*49
1501142409.49,29193,18.69,73302.8,13.85,3.97,3.59,0,*40
1501142410.68,29194,18.69,73306.3,13.89,4.37,3.93,0,*40
1501142411.87,29195,18.69,73302.8,13.89,4.37,3.93,0,*41
1501142413.08,29196,18.69,73300.5,13.93,4.15,3.49,0,*4E
1501142414.3,29197,18.69,73302.3,13.93,4.15,3.45,0,*43
1501142415.51,29198,18.69,73304.5,13.95,3.63,2.65,0,*4F
1501142416.69,29199,18.69,73304.5,13.97,2.99,1.83,0,*43
1501142417.94,29200,18.69,73304.5,13.99,2.69,1.25,0,*4D
1501142419.18,29201,18.69,73302.3,13.99,1.71,-0.11,0,*5D
1501142420.42,29202,18.69,73304.8,14.01,0.87,-1.47,0,*52
1501142421.68,29203,18.75,73306.8,13.99,0.13,-2.67,0,*59
1501142422.85,29204,18.69,73304.8,14.01,-0.07,-2.79,0,*4F
1501142424.11,29205,18.69,73302.8,13.99,0.33,-1.83,0,*54
1501142425.36,29206,18.69,73302.3,13.99,0.87,-0.97,0,*6C
1501142426.59,29207,18.69,73302.0,13.99,1.47,-0.19,0,*56
1501142427.82,29208,18.69,73300.3,14.03,1.51,0.05,0,*4A
1501142429.05,29209,18.69,73300.8,14.05,1.55,0.21,0,*7F
1501142430.28,29210,18.75,73304.0,14.03,1.17,-0.03,0,*6A
1501142431.49,29211,18.69,73302.0,14.05,0.95,-0.37,0,*61
1501142432.7,29212,18.69,73302.8,14.09,1.25,-0.11,0,*50
1501142433.91,29213,18.69,73302.8,14.09,0.91,-0.73,0,*6B
1501142435.14,29214,18.69,73302.8,14.11,0.91,-0.57,0,*63
1501142436.36,29215,18.69,73304.0,14.09,0.41,-1.09,0,*5C
1501142437.6,29216,18.69,73302.3,14.11,1.09,-0.41,0,*56
1501142438.83,29217,18.69,73306.0,14.11,0.91,-0.61,0,*65
1501142440.04,29218,18.69,73304.0,14.13,1.33,-0.19,0,*5E
1501142441.29,29219,18.69,73302.0,14.15,1.67,0.17,0,*7B
1501142442.52,29220,18.69,73300.5,14.15,1.79,0.29,0,*73
1501142443.72,29221,18.69,73302.0,14.17,1.83,0.21,0,*7D
1501142444.95,29222,18.69,73300.8,14.15,1.51,-0.19,0,*55
1501142446.17,29223,18.69,73296.3,14.17,1.13,-0.49,0,*55
1501142447.41,29224,18.69,73304.5,14.19,1.21,-0.49,0,*5D
1501142448.61,29225,18.75,73306.8,14.17,0.59,-1.25,0,*57
1501142449.85,29226,18.69,73302.3,14.19,0.75,-0.93,0,*68
1501142451.07,29227,18.69,73302.3,14.17,0.95,-0.89,0,*62
1501142452.32,29228,18.69,73302.0,14.19,0.37,-1.43,0,*5C
1501142453.54,29229,18.69,73300.3,14.17,0.17,-1.35,0,*50
1501142454.77,29230,18.69,73300.5,14.19,-0.49,-1.95,0,*7A
1501142455.96,29231,18.69,73300.8,14.17,-0.11,-1.17,0,*72
1501142457.14,29232,18.69,73300.5,14.17,-0.33,-1.29,0,*7C
1501142458.38,29233,18.69,73302.5,14.19,0.79,0.17,0,*41
1501142459.6,29234,18.69,73302.5,14.21,0.63,0.05,0,*75
1501142460.81,29235,18.69,73300.8,14.23,1.33,1.01,0,*47
1501142462.02,29236,18.69,73300.5,14.23,2.85,2.61,0,*4F
1501142463.26,29237,18.69,73300.8,14.27,3.23,3.15,0,*45
1501142464.49,29238,18.69,73300.5,14.35,3.53,3.53,0,*4C
1501142465.74,29239,18.69,73302.5,14.41,3.71,3.79,0,*46
1501142466.97,29240,18.69,73298.0,14.41,4.41,4.31,0,*47
1501142468.2,29241,18.69,73300.0,14.45,4.67,4.49,0,*49
1501142469.4,29242,18.69,73302.8,14.49,4.45,4.19,0,*43
1501142470.63,29243,18.69,73304.3,14.55,4.59,4.15,0,*4E
1501142471.81,29244,18.69,73302.0,14.53,4.45,3.85,0,*4C
1501142473.04,29245,18.69,73300.3,14.55,4.01,3.29,0,*4D
1501142474.3,29246,18.69,73302.8,14.55,3.07,2.21,0,*46
1501142475.54,29247,18.69,73304.5,14.55,2.85,1.89,0,*4D
1501142476.8,29248,18.69,73300.3,14.55,3.23,2.09,0,*44
1501142478.06,29249,18.69,73300.5,14.55,3.15,1.89,0,*4B
1501142479.32,29250,18.75,73304.3,14.55,1.97,0.21,0,*78
1501142480.53,29251,18.69,73300.5,14.55,1.75,-0.53,0,*5D
1501142481.74,29252,18.69,73302.5,14.53,0.51,-2.19,0,*53
1501142482.95,29253,18.69,73298.8,14.49,-0.37,-3.11,0,*7D
1501142484.12,29254,18.75,73302.0,14.47,-0.29,-2.79,0,*74
1501142485.33,29255,18.75,73300.3,14.45,-0.03,-2.27,0,*44
1501142486.59,29256,18.69,73300.8,14.45,0.21,-1.99,0,*5C
1501142487.83,29257,18.69,73302.0,14.45,0.13,-1.87,0,*53
1501142489.06,29258,18.75,73308.0,14.45,0.25,-1.63,0,*53
1501142490.3,29259,18.69,73306.0,14.45,-0.15,-1.99,0,*79
1501142491.54,29260,18.69,73306.5,14.45,-0.37,-2.75,0,*72
1501142492.78,29261,18.69,73302.3,14.45,-1.13,-3.87,0,*48
1501142494.0,29262,18.69,73306.3,14.47,-2.23,-5.23,0,*41
1501142495.21,29263,18.69,73306.0,14.47,-4.41,-7.95,0,*4D
1501142496.46,29264,18.69,73304.8,14.49,-5.97,-10.67,0,*75
1501142497.71,29265,18.69,73304.0,14.47,-7.73,-12.07,0,*76
1501142498.96,29266,18.69,73306.5,14.47,-7.95,-12.07,0,*7D
1501142500.23,29267,18.69,73304.8,14.49,-7.43,-11.59,0,*71
1501142501.48,29268,18.69,73302.5,14.49,-8.89,-12.65,0,*7B
1501142502.71,29269,18.69,73306.3,14.49,-9.79,-13.19,0,*7E
1501142503.94,29270,18.69,73306.3,14.53,-10.63,-13.43,0,*41
1501142505.22,29271,18.69,73306.5,14.55,-10.71,-13.01,0,*43
1501142506.49,29272,18.69,73304.8,14.55,-10.79,-13.01,0,*48
1501142507.75,29273,18.69,73304.0,14.59,-10.23,-11.89,0,*48
1501142508.98,29274,18.75,73306.8,14.61,-10.15,-11.07,0,*47
1501142510.27,29275,18.69,73302.8,14.63,-11.63,-11.63,0,*46
1501142511.55,29276,18.69,73304.5,14.67,-12.07,-11.67,0,*44
1501142512.83,29277,18.75,73304.8,14.71,-12.15,-11.67,0,*41
1501142514.09,29278,18.69,73302.3,14.77,-13.37,-12.57,0,*49
1501142515.31,29279,18.69,73306.8,14.77,-13.69,-13.37,0,*44
1501142516.59,29280,18.69,73304.8,14.79,-13.87,-12.61,0,*4E
1501142517.81,29281,18.69,73304.5,14.81,-11.51,-9.19,0,*74
1501142519.03,29282,18.69,73306.3,14.85,-10.63,-7.49,0,*78
1501142520.23,29283,18.69,73304.5,14.89,-8.63,-7.53,0,*47
1501142521.45,29284,18.69,73306.0,14.91,-6.89,-7.15,0,*41
1501142522.66,29285,18.69,73304.3,14.93,-7.01,-8.17,0,*4E
1501142523.9,29286,18.69,73304.3,14.99,-7.99,-8.67,0,*41
1501142525.09,29287,18.69,73306.5,15.01,-8.75,-8.93,0,*46
1501142526.31,29288,18.69,73306.3,15.03,-8.59,-8.21,0,*4C
1501142527.56,29289,18.69,73302.3,15.07,-7.99,-7.19,0,*4E
1501142528.77,29290,18.75,73306.8,15.09,-7.83,-7.95,0,*47
1501142530.01,29291,18.69,73304.5,15.11,-6.85,-7.69,0,*4B
1501142531.22,29292,18.69,73302.8,15.11,-8.17,-8.75,0,*4F
1501142532.44,29293,18.69,73306.0,15.15,-7.87,-8.29,0,*45
1501142533.65,29294,18.69,73304.3,15.17,-9.05,-8.67,0,*4E
1501142534.89,29295,18.69,73304.0,15.23,-10.15,-9.53,0,*77
1501142536.12,29296,18.69,73304.3,15.23,-11.63,-11.19,0,*43
1501142537.37,29297,18.69,73300.3,15.29,-11.73,-10.57,0,*42
1501142538.65,29298,18.69,73302.3,15.33,-12.75,-11.37,0,*44
1501142539.9,29299,18.75,73306.5,15.33,-14.15,-12.65,0,*41
1501142541.15,29300,18.69,73302.8,15.37,-14.89,-13.33,0,*43
1501142542.45,29301,18.69,73300.8,15.37,-14.47,-12.71,0,*47
1501142543.67,29302,18.69,73306.0,15.39,-13.79,-11.11,0,*45
1501142544.88,29303,18.69,73302.0,15.43,-13.51,-9.01,0,*7B
1501142546.08,29304,18.75,73306.3,15.43,-13.23,-7.87,0,*79
1501142547.28,29305,18.69,73304.5,15.47,-10.19,-7.15,0,*7D
1501142548.51,29306,18.75,73304.8,15.47,-9.57,-7.95,0,*44
1501142549.71,29307,18.69,73302.5,15.47,-9.01,-8.45,0,*44
1501142550.9,29308,18.69,73302.3,15.47,-9.93,-9.67,0,*41
1501142552.11,29309,18.69,73302.5,15.49,-11.45,-11.45,0,*45
1501142553.34,29310,18.69,73300.5,15.49,-10.71,-10.85,0,*46
1501142554.52,29311,18.75,73306.0,15.49,-9.89,-9.93,0,*47
1501142555.77,29312,18.75,73304.3,15.51,-9.49,-10.05,0,*76
1501142556.99,29313,18.69,73302.5,15.55,-9.93,-10.89,0,*70
1501142558.23,29314,18.75,73306.8,15.55,-9.83,-10.89,0,*76
1501142559.5,29315,18.69,73306.5,15.55,-9.11,-10.35,0,*7B
1501142560.74,29316,18.75,73306.8,15.57,-7.91,-9.15,0,*46
1501142561.96,29317,18.75,73304.5,15.61,-6.93,-7.83,0,*40
1501142563.17,29318,18.69,73302.3,15.63,-6.01,-6.73,0,*48
1501142564.42,29319,18.75,73306.5,15.69,-5.15,-6.27,0,*44
1501142565.66,29320,18.75,73304.8,15.71,-5.93,-7.15,0,*49
1501142566.85,29321,18.75,73306.5,15.73,-5.97,-7.15,0,*4E
1501142568.09,29322,18.69,73304.0,15.77,-4.89,-6.19,0,*4A
1501142569.27,29323,18.69,73304.3,15.77,-4.49,-6.31,0,*4D
1501142570.51,29324,18.75,73304.0,15.79,-4.89,-6.73,0,*4E
1501142571.72,29325,18.75,73308.3,15.81,-4.65,-6.39,0,*44
1501142572.96,29326,18.75,73304.0,15.81,-4.85,-6.51,0,*47
1501142574.17,29327,18.75,73306.0,15.83,-4.41,-5.61,0,*4C
1501142575.43,29328,18.75,73304.8,15.89,-4.21,-5.03,0,*4B
1501142576.66,29329,18.75,73304.8,15.85,-3.71,-3.83,0,*4A
1501142577.85,29330,18.75,73310.3,15.91,-3.19,-2.99,0,*43
1501142579.07,29331,18.75,73306.5,15.91,-3.31,-2.67,0,*49
1501142580.26,29332,18.75,73304.8,15.95,-5.39,-4.05,0,*42
1501142581.46,29333,18.69,73306.3,15.95,-5.43,-3.63,0,*49
1501142582.64,29334,18.69,73304.3,15.95,-6.13,-3.79,0,*43
1501142583.87,29335,18.69,73306.5,15.93,-6.13,-3.43,0,*4D
1501142585.06,29336,18.75,73308.3,15.91,-6.13,-3.15,0,*4F
1501142586.26,29337,18.75,73306.8,15.89,-6.39,-3.19,0,*43
1501142587.47,29338,18.75,73304.8,15.89,-5.35,-2.27,0,*4F
1501142588.71,29339,18.69,73302.8,15.89,-3.47,-0.45,0,*7B
1501142589.91,29340,18.69,73306.5,15.91,-3.55,-0.53,0,*78
1501142591.12,29341,18.75,73306.8,15.91,-2.99,0.25,0,*54
1501142592.34,29342,18.75,73306.3,15.91,-2.59,0.41,0,*59
1501142593.54,29343,18.69,73306.3,15.91,-2.31,0.25,0,*54
1501142594.79,29344,18.75,73304.8,15.89,-1.05,1.17,0,*6E
1501142596.02,29345,18.75,73304.8,15.93,-1.25,0.47,0,*52
1501142597.26,29346,18.69,73304.8,15.93,-0.89,0.25,0,*62
1501142598.49,29347,18.69,73306.0,15.93,-1.01,-0.15,0,*7C
1501142599.69,29348,18.69,73304.3,15.93,-0.15,0.43,0,*69
1501142600.87,29349,18.75,73304.8,15.93,0.05,-0.03,0,*6D
1501142602.06,29350,18.75,73306.8,15.91,0.47,-0.07,0,*55
1501142603.27,29351,18.75,73306.5,15.91,0.83,-0.15,0,*6F
1501142604.5,29352,18.75,73304.8,15.95,1.21,-0.23,0,*54
1501142605.69,29353,18.69,73304.0,15.95,1.71,0.01,0,*4D
1501142606.91,29354,18.75,73306.5,15.97,2.27,0.13,0,*7B
1501142608.11,29355,18.75,73306.8,15.97,1.83,-0.61,0,*5F
1501142609.35,29356,18.75,73304.0,15.97,1.25,-1.51,0,*62
1501142610.57,29357,18.75,73306.5,15.97,0.75,-2.19,0,*58
1501142611.79,29358,18.75,73304.0,15.97,0.63,-2.19,0,*50
1501142613.02,29359,18.75,73308.0,15.95,0.95,-2.11,0,*52
1501142614.25,29360,18.75,73306.3,15.95,0.87,-2.47,0,*58
1501142615.5,29361,18.75,73310.5,15.95,-1.01,-5.03,0,*4C
1501142616.71,29362,18.75,73310.0,15.93,-1.17,-6.09,0,*47
1501142617.91,29363,18.75,73304.8,15.89,-2.83,-8.71,0,*42
1501142619.12,29364,18.69,73304.0,15.83,-0.89,-7.15,0,*7A
1501142620.3,29365,18.69,73308.5,15.83,-0.07,-7.15,0,*4D
1501142621.5,29366,18.69,73306.3,15.81,-0.53,-8.67,0,*77
1501142622.75,29367,18.75,73306.8,15.79,-1.43,-10.23,0,*78
1501142623.94,29368,18.75,73308.3,15.77,-1.51,-11.01,0,*7B
1501142625.16,29369,18.75,73310.3,15.75,-2.95,-13.43,0,*77
1501142626.4,29370,18.75,73306.5,15.71,-2.71,-13.15,0,*72
1501142627.62,29371,18.75,73304.3,15.67,-2.99,-14.29,0,*7A
1501142628.89,29372,18.75,73308.5,15.63,-4.01,-15.53,0,*76
1501142630.1,29373,18.75,73306.3,15.57,-4.77,-16.37,0,*70
1501142631.36,29374,18.75,73306.8,15.55,-4.77,-16.51,0,*75
1501142632.58,29375,18.75,73310.5,15.53,-4.53,-16.23,0,*71
1501142633.82,29376,18.75,73310.0,15.51,-4.69,-16.55,0,*78
1501142635.02,29377,18.75,73304.0,15.49,-6.89,-19.13,0,*71
1501142636.27,29378,18.69,73308.3,15.45,-6.93,-18.69,0,*75
1501142637.47,29379,18.69,73304.0,15.39,-6.77,-17.87,0,*7A
1501142638.7,29380,18.75,73310.0,15.35,-6.55,-17.25,0,*78
1501142639.94,29381,18.75,73308.3,15.37,-8.17,-18.93,0,*71
1501142641.15,29382,18.75,73310.3,15.35,-9.23,-19.75,0,*7F
1501142642.37,29383,18.69,73304.8,15.31,-9.71,-19.81,0,*76
1501142643.62,29384,18.75,73308.3,15.33,-10.57,-20.19,0,*44
1501142644.86,29385,18.75,73306.5,15.27,-11.77,-20.73,0,*4F
1501142646.11,29386,18.75,73306.5,15.27,-11.89,-20.15,0,*4D
1501142647.38,29387,18.75,73308.5,15.27,-11.07,-18.31,0,*47
1501142648.63,29388,18.69,73306.0,15.27,-10.75,-17.41,0,*44
1501142649.84,29389,18.75,73310.5,15.27,-12.03,-18.41,0,*49
1501142651.06,29390,18.75,73310.5,15.29,-13.11,-19.13,0,*4B
1501142652.32,29391,18.75,73310.5,15.31,-12.35,-17.97,0,*46
1501142653.57,29392,18.75,73310.5,15.33,-11.11,-16.27,0,*48
1501142654.83,29393,18.75,73308.5,15.35,-11.63,-16.23,0,*4E
1501142656.08,29394,18.75,73310.0,15.37,-12.61,-16.79,0,*45
1501142657.33,29395,18.69,73306.0,15.43,-12.35,-15.89,0,*4A
1501142658.59,29396,18.75,73308.5,15.47,-11.59,-14.83,0,*4F
1501142659.87,29397,18.75,73306.8,15.51,-12.79,-15.57,0,*40
1501142661.14,29398,18.75,73308.8,15.55,-14.19,-16.09,0,*43
1501142662.42,29399,18.75,73306.5,15.55,-14.55,-15.89,0,*41
1501142663.71,29400,18.75,73304.5,15.59,-14.01,-14.83,0,*40
1501142664.93,29401,18.75,73308.8,15.63,-14.65,-14.69,0,*4E
1501142666.19,29402,18.69,73302.3,15.63,-15.25,-14.83,0,*4C
1501142667.47,29403,18.69,73306.5,15.63,-13.37,-11.93,0,*4C
1501142668.75,29404,18.75,73306.8,15.67,-12.83,-11.93,0,*41
1501142669.97,29405,18.75,73304.5,15.69,-11.81,-11.19,0,*4D
1501142671.17,29406,18.69,73306.5,15.69,-10.49,-10.09,0,*4B
1501142672.41,29407,18.75,73306.0,15.71,-12.61,-14.11,0,*46
1501142673.66,29408,18.75,73304.5,15.71,-13.01,-13.51,0,*4D
1501142674.89,29409,18.75,73306.5,15.71,-12.39,-11.19,0,*48
1501142676.12,29410,18.75,73304.8,15.73,-9.61,-9.15,0,*40
1501142677.33,29411,18.75,73310.5,15.73,-8.93,-10.15,0,*75
1501142678.54,29412,18.75,73304.8,15.77,-9.93,-11.63,0,*73
1501142679.78,29413,18.75,73308.0,15.77,-12.57,-14.43,0,*47
1501142681.01,29414,18.69,73304.0,15.77,-13.19,-12.79,0,*44
1501142682.26,29415,18.75,73308.8,15.79,-11.97,-12.29,0,*4A
1501142683.48,29416,18.75,73310.0,15.77,-10.93,-11.73,0,*4E
1501142684.7,29417,18.75,73310.0,15.81,-8.75,-10.05,0,*77
1501142685.93,29418,18.75,73304.0,15.81,-9.19,-10.97,0,*78
1501142687.18,29419,18.75,73308.3,15.81,-10.71,-12.39,0,*49
1501142688.39,29420,18.75,73304.3,15.83,-10.57,-12.21,0,*4C
1501142689.62,29421,18.75,73308.8,15.83,-9.31,-10.67,0,*75
1501142690.85,29422,18.75,73308.3,15.85,-8.85,-10.35,0,*79
1501142692.05,29423,18.75,73310.8,15.91,-8.17,-12.21,0,*71
1501142693.29,29424,18.75,73308.8,15.89,-12.89,-16.65,0,*47
1501142694.49,29425,18.75,73308.3,15.91,-13.23,-15.99,0,*4E
1501142695.74,29426,18.75,73310.0,15.89,-12.57,-15.11,0,*46
1501142696.96,29427,18.75,73308.0,15.91,-12.11,-13.93,0,*40
1501142698.19,29428,18.75,73310.0,15.91,-10.89,-12.71,0,*41
1501142699.38,29429,18.75,73310.3,15.95,-10.49,-13.07,0,*48
1501142700.61,29430,18.75,73308.0,15.99,-11.63,-13.55,0,*42
1501142701.84,29431,18.75,73308.8,15.99,-11.59,-13.23,0,*4B
1501142703.04,29432,18.75,73308.8,15.99,-10.89,-12.25,0,*43
1501142704.29,29433,18.75,73308.5,16.03,-10.71,-11.73,0,*45
1501142705.5,29434,18.75,73310.5,16.07,-10.53,-11.77,0,*42
1501142706.73,29435,18.75,73310.5,16.07,-10.35,-12.11,0,*40
1501142707.98,29436,18.75,73310.5,16.13,-10.85,-12.11,0,*4D
1501142709.25,29437,18.75,73310.3,16.13,-13.11,-14.01,0,*45
1501142710.48,29438,18.75,73308.8,16.13,-12.39,-12.93,0,*4C
1501142711.74,29439,18.75,73310.8,16.17,-11.19,-11.51,0,*45
1501142713.02,29440,18.75,73310.5,16.17,-11.63,-11.67,0,*43
1501142714.27,29441,18.75,73308.3,16.17,-11.41,-10.97,0,*4C
1501142715.51,29442,18.75,73310.0,16.19,-12.29,-11.77,0,*43
1501142716.74,29443,18.75,73308.0,16.19,-13.33,-12.89,0,*4A
1501142717.98,29444,18.75,73314.0,16.19,-13.19,-13.01,0,*44
1501142719.23,29445,18.75,73308.8,16.15,-12.61,-12.65,0,*44
1501142720.47,29446,18.75,73308.3,16.15,-12.07,-11.19,0,*4F
1501142721.69,29447,18.75,73306.3,16.15,-10.93,-10.27,0,*4D
1501142722.89,29448,18.75,73306.8,16.15,-10.23,-8.93,0,*7F
1501142724.14,29449,18.75,73310.5,16.19,-9.41,-8.03,0,*47
1501142725.39,29450,18.75,73308.3,16.19,-11.89,-10.19,0,*40
1501142726.6,29451,18.75,73310.5,16.15,-12.47,-10.57,0,*46
1501142727.86,29452,18.75,73310.0,16.17,-10.67,-8.75,0,*7E
1501142729.09,29453,18.75,73308.5,16.17,-10.15,-8.37,0,*7C
1501142730.32,29454,18.75,73310.3,16.19,-10.41,-8.55,0,*70
1501142731.55,29455,18.75,73308.5,16.21,-10.89,-8.85,0,*73
1501142732.8,29456,18.75,73310.8,16.21,-10.63,-8.37,0,*7D
1501142734.03,29457,18.75,73306.0,16.23,-10.01,-7.65,0,*72
1501142735.23,29458,18.75,73308.5,16.27,-11.11,-8.71,0,*73
1501142736.46,29459,18.75,73310.8,16.27,-11.51,-8.75,0,*72
1501142737.72,29460,18.75,73310.0,16.27,-10.67,-8.03,0,*7D
1501142738.94,29461,18.75,73306.5,16.27,-10.89,-8.03,0,*7C
1501142740.2,29462,18.75,73304.3,16.27,-11.63,-8.51,0,*7D
1501142741.41,29463,18.75,73310.3,16.27,-10.93,-7.53,0,*7F
1501142742.68,29464,18.75,73306.5,16.29,-11.37,-7.91,0,*77
1501142743.91,29465,18.75,73310.0,16.29,-10.05,-6.47,0,*7C
1501142745.14,29466,18.75,73304.3,16.31,-9.27,-5.65,0,*4D
1501142746.34,29467,18.75,73306.3,16.31,-8.55,-4.99,0,*4A
1501142747.56,29468,18.75,73308.0,16.37,-7.15,-3.39,0,*45
1501142748.81,29469,18.75,73304.5,16.37,-6.43,-2.51,0,*49
1501142750.01,29470,18.75,73304.3,16.43,-6.81,-2.91,0,*40
1501142751.24,29471,18.75,73306.8,16.45,-6.93,-2.99,0,*4C
1501142752.47,29472,18.75,73306.5,16.45,-7.43,-3.27,0,*47
1501142753.71,29473,18.75,73306.8,16.47,-7.53,-3.59,0,*4C
1501142754.94,29474,18.75,73304.0,16.47,-6.85,-2.99,0,*4C
1501142756.19,29475,18.75,73300.0,16.49,-6.19,-2.47,0,*45
1501142757.47,29476,18.75,73300.5,16.47,-5.27,-1.99,0,*46
1501142758.69,29477,18.75,73304.8,16.49,-5.15,-2.15,0,*4F
1501142759.89,29478,18.75,73306.8,16.49,-4.49,-1.71,0,*49
1501142761.12,29479,18.75,73300.8,16.49,-4.33,-1.91,0,*4B
1501142762.34,29480,18.75,73308.3,16.49,-4.13,-2.03,0,*47
1501142763.57,29481,18.75,73302.0,16.49,-4.01,-2.19,0,*4E
1501142764.82,29482,18.75,73306.8,16.47,-4.17,-2.75,0,*4E
1501142766.02,29483,18.75,73304.8,16.45,-4.09,-2.99,0,*40
1501142767.25,29484,18.75,73300.3,16.47,-4.05,-3.27,0,*4D
1501142768.45,29485,18.75,73302.5,16.43,-4.25,-3.95,0,*43
1501142769.71,29486,18.75,73306.5,16.43,-5.23,-5.23,0,*4C
1501142770.96,29487,18.75,73306.8,16.39,-5.77,-5.93,0,*4A
1501142772.21,29488,18.75,73302.5,16.33,-5.61,-6.13,0,*43
1501142773.45,29489,18.75,73304.8,16.29,-6.23,-6.85,0,*43
1501142774.71,29490,18.75,73304.5,16.23,-5.85,-6.63,0,*46
1501142775.95,29491,18.75,73304.0,16.21,-4.99,-5.89,0,*4E
1501142777.21,29492,18.75,73302.5,16.21,-3.91,-4.85,0,*4F
1501142778.43,29493,18.75,73302.0,16.19,-3.75,-4.65,0,*41
1501142779.65,29494,18.75,73302.8,16.19,-4.41,-5.11,0,*44
1501142780.91,29495,18.75,73306.0,16.15,-5.03,-5.31,0,*4C
1501142782.17,29496,18.75,73304.3,16.15,-5.03,-5.15,0,*49
1501142783.37,29497,18.75,73306.5,16.15,-6.09,-6.35,0,*40
1501142784.56,29498,18.75,73304.5,16.11,-6.09,-6.43,0,*4A
1501142785.77,29499,18.75,73306.3,16.07,-6.69,-6.97,0,*43
1501142786.99,29500,18.75,73308.5,16.05,-6.77,-6.85,0,*4C
1501142788.19,29501,18.75,73306.0,16.01,-6.77,-6.69,0,*4B
1501142789.4,29502,18.75,73306.8,16.01,-6.13,-5.97,0,*48
1501142790.66,29503,18.75,73304.3,16.01,-4.93,-5.07,0,*4A
1501142791.9,29504,18.75,73306.5,16.01,-5.61,-5.51,0,*42
1501142793.11,29505,18.75,73304.8,16.03,-4.73,-4.41,0,*43
1501142794.31,29506,18.75,73306.5,16.03,-4.69,-4.29,0,*45
1501142795.56,29507,18.75,73306.0,16.05,-4.77,-4.01,0,*47
1501142796.75,29508,18.75,73306.8,16.11,-4.33,-3.31,0,*49
1501142798.01,29509,18.75,73304.5,16.13,-3.51,-2.39,0,*40
1501142799.26,29510,18.75,73306.5,16.17,-2.79,-1.39,0,*44
1501142800.45,29511,18.75,73304.5,16.23,-2.27,-0.77,0,*72
1501142801.67,29512,18.75,73304.3,16.31,-1.91,-0.15,0,*78
1501142802.86,29513,18.75,73306.0,16.39,-1.75,0.05,0,*67
1501142804.07,29514,18.75,73306.8,16.45,-2.99,-0.93,0,*78
1501142805.32,29515,18.75,73306.5,16.47,-4.17,-1.95,0,*4C
1501142806.55,29516,18.75,73304.8,16.51,-3.95,-1.55,0,*49
1501142807.77,29517,18.75,73304.3,16.53,-5.43,-2.75,0,*46
1501142808.97,29518,18.75,73306.5,16.61,-7.19,-4.21,0,*42
1501142810.22,29519,18.75,73300.8,16.59,-7.65,-4.49,0,*4D
1501142811.46,29520,18.75,73304.3,16.55,-7.69,-4.41,0,*4F
1501142812.71,29521,18.75,73306.5,16.55,-7.95,-4.29,0,*43
1501142813.93,29522,18.75,73304.5,16.59,-6.73,-3.15,0,*4D
1501142815.17,29523,18.75,73304.3,16.59,-5.19,-1.59,0,*49
1501142816.39,29524,18.75,73306.0,16.59,-4.53,-0.77,0,*7C
1501142817.6,29525,18.75,73304.3,16.63,-4.33,-0.53,0,*74
1501142818.79,29526,18.75,73304.3,16.65,-4.33,-0.29,0,*7C
1501142820.05,29527,18.75,73306.5,16.67,-2.51,1.47,0,*69
1501142821.3,29528,18.75,73308.5,16.71,-2.03,1.83,0,*6E
1501142822.53,29529,18.75,73306.5,16.75,-1.79,2.01,0,*6C
1501142823.77,29530,18.75,73310.0,16.81,-0.97,2.65,0,*5C
1501142825.04,29531,18.75,73304.5,16.89,-1.47,2.17,0,*6C
1501142826.28,29532,18.75,73310.3,16.89,-1.63,2.01,0,*6E
1501142827.52,29533,18.75,73310.8,16.93,-0.15,3.41,0,*51
1501142828.78,29534,18.75,73308.5,16.97,-1.47,2.05,0,*65
1501142829.99,29535,18.75,73306.0,17.01,-1.55,1.79,0,*61
1501142831.24,29536,18.75,73306.8,17.05,-1.91,1.25,0,*67
1501142832.48,29537,18.75,73310.0,17.09,-0.89,2.05,0,*53
1501142833.71,29538,18.75,73308.5,17.11,-0.89,1.75,0,*51
1501142834.93,29539,18.75,73310.0,17.13,-1.33,1.17,0,*66
1501142836.13,29540,18.75,73306.8,17.17,-0.81,1.51,0,*56
1501142837.3,29541,18.75,73308.5,17.17,-0.73,1.41,0,*5B
1501142838.56,29542,18.75,73306.8,17.19,-0.89,0.87,0,*68
1501142839.82,29543,18.75,73306.8,17.19,-1.13,0.47,0,*57
1501142841.03,29544,18.75,73308.5,17.21,-1.43,0.01,0,*6C
1501142842.29,29545,18.75,73308.0,17.23,-1.43,-0.23,0,*72
1501142843.48,29546,18.75,73306.8,17.21,-1.67,-0.41,0,*71
1501142844.75,29547,18.75,73306.8,17.27,-2.03,-0.93,0,*78
1501142845.95,29548,18.75,73308.0,17.27,-1.75,-0.61,0,*78
1501142847.19,29549,18.75,73308.5,17.27,-1.91,-0.77,0,*74
1501142848.39,29550,18.75,73304.0,17.29,-1.71,-0.49,0,*71
1501142849.63,29551,18.75,73308.3,17.29,-2.11,-0.85,0,*75
1501142850.9,29552,18.75,73308.5,17.31,-2.63,-1.13,0,*44
1501142852.11,29553,18.75,73310.5,17.31,-2.35,-0.73,0,*71
1501142853.33,29554,18.75,73306.8,17.31,-2.27,-0.45,0,*70
1501142854.54,29555,18.75,73306.3,17.33,-1.83,0.05,0,*67
1501142855.75,29556,18.75,73308.8,17.33,-1.71,0.29,0,*57
1501142856.92,29557,18.75,73304.3,17.33,-1.59,0.43,0,*50
1501142858.16,29558,18.75,73306.8,17.35,-0.77,1.33,0,*52
1501142859.36,29559,18.75,73306.8,17.37,-0.45,1.71,0,*56
1501142860.58,29560,18.75,73306.0,17.37,0.37,2.43,0,*76
1501142861.77,29561,18.75,73310.8,17.41,0.17,2.35,0,*75
1501142863.0,29562,18.75,73308.3,17.45,0.33,2.51,0,*76
1501142864.21,29563,18.75,73310.0,17.49,-0.11,1.97,0,*5F
1501142865.45,29564,18.75,73308.0,17.51,-0.23,1.71,0,*58
1501142866.67,29565,18.75,73308.5,17.53,1.21,2.95,0,*4C
1501142867.93,29566,18.75,73308.3,17.55,1.89,3.41,0,*43
1501142869.16,29567,18.75,73310.5,17.59,1.89,2.99,0,*4A
1501142870.39,29568,18.75,73308.0,17.63,2.13,2.99,0,*4C
1501142871.63,29569,18.75,73304.8,17.67,2.13,2.61,0,*4E
1501142872.85,29570,18.75,73308.8,17.69,1.47,1.71,0,*48
1501142874.1,29571,18.75,73306.5,17.73,1.43,1.43,0,*47
1501142875.34,29572,18.75,73310.5,17.75,1.13,0.83,0,*7A
1501142876.6,29573,18.75,73306.8,17.77,1.33,0.67,0,*71
1501142877.87,29574,18.75,73308.5,17.77,1.29,0.33,0,*7C
1501142879.11,29575,18.75,73308.3,17.79,1.33,0.21,0,*7B
1501142880.33,29576,18.75,73310.0,17.79,1.43,0.13,0,*7E
1501142881.58,29577,18.75,73310.3,17.81,0.83,-0.85,0,*67
1501142882.81,29578,18.75,73310.0,17.79,0.59,-1.01,0,*55
1501142884.05,29579,18.75,73310.0,17.81,1.25,-0.57,0,*5B
1501142885.28,29580,18.75,73306.8,17.81,1.47,-0.57,0,*59
1501142886.51,29581,18.75,73310.3,17.81,1.43,-0.61,0,*59
1501142887.71,29582,18.75,73308.5,17.83,1.97,0.01,0,*4A
1501142888.96,29583,18.75,73306.0,17.85,2.13,0.13,0,*71
1501142890.19,29584,18.75,73306.8,17.85,1.51,-0.49,0,*51
1501142891.43,29585,18.75,73304.8,17.85,1.71,-0.19,0,*57
1501142892.64,29586,18.75,73306.5,17.85,1.05,-0.65,0,*5C
1501142893.87,29587,18.75,73308.5,17.89,1.71,0.09,0,*45
1501142895.09,29588,18.75,73306.3,17.89,1.83,0.41,0,*7B
1501142896.34,29589,18.75,73306.5,17.89,2.69,1.37,0,*4D
1501142897.59,29590,18.75,73308.0,17.89,3.03,1.93,0,*46
1501142898.82,29591,18.75,73308.5,17.95,3.33,2.25,0,*47
1501142900.07,29592,18.75,73308.0,17.97,2.73,2.09,0,*4D
1501142901.29,29593,18.75,73308.3,17.99,2.21,1.55,0,*4F
1501142902.55,29594,18.75,73308.8,18.01,2.77,2.17,0,*40
1501142903.8,29595,18.75,73306.0,18.01,1.43,0.83,0,*7A
1501142905.05,29596,18.75,73310.3,18.01,1.59,1.13,0,*4A
1501142906.3,29597,18.75,73308.3,18.01,2.77,2.43,0,*42
1501142907.53,29598,18.75,73310.5,18.03,2.59,2.25,0,*43
1501142908.77,29599,18.75,73310.0,18.05,2.77,2.51,0,*4B